Temperature
17 17 17 18 15 13 15 15 17 17 18 18 18 18 16 16 17 16 15 15 15 15 15 15 15 15 15 15 15 15 15 15 15 15 15 15 15 15 16 16 15 15 15 15 15 15 15 15 15
17 17 17 17 13 14 15 15 16 17 18 18 18 17 16 15 15 15 15 15 15 15 15 15 15 15 15 15 15 15 15 15 15 15 15 15 15 15 15 15 15 15 15 15 15 15 15 15 15
17 17 17 12 13 14 16 16 16 17 18 18 17 16 15 15 15 15 15 15 15 15 15 15 15 15 15 15 15 15 15 15 15 15 15 15 15 15 15 15 15 15 15 15 15 15 15 15 15
16 16 15 12 14 14 15 16 16 17 18 18 16 15 14 14 15 15 15 15 15 15 15 15 15 15 15 15 14 14 14 14 15 15 15 15 15 15 15 15 15 15 15 15 15 15 15 15 14
16 16 13 13 14 14 15 16 17 16 17 17 16 14 14 14 15 15 15 15 15 15 14 14 14 14 15 14 14 14 14 14 14 14 15 15 15 15 15 15 15 15 15 15 15 15 15 14 14
16 13 12 12 14 15 15 17 17 16 16 16 15 13 13 14 14 14 14 14 14 14 14 14 14 14 14 14 14 14 14 14 14 14 14 14 14 14 14 15 15 15 15 14 14 14 14 14 14
14 11 12 13 14 15 15 17 16 15 15 15 15 13 13 13 13 14 14 14 14 14 14 14 14 14 14 14 14 14 14 14 14 14 14 14 14 14 14 14 14 14 14 14 14 14 14 14 14
15 11 13 13 14 15 15 16 16 16 15 15 15 13 13 13 13 13 13 13 13 13 13 13 13 13 13 13 13 13 13 13 14 14 14 14 14 14 14 14 14 14 14 14 14 14 14 14 13
15 11 12 13 14 14 15 15 15 15 15 14 14 14 14 13 13 13 13 13 13 13 13 13 13 13 13 13 13 13 13 13 13 13 13 13 13 13 13 14 13 14 14 14 14 14 13 13 13
13 10 12 13 14 14 14 14 14 14 13 13 13 13 13 13 13 13 13 13 13 13 12 13 13 13 13 13 13 13 13 13 13 13 13 13 13 13 13 13 13 13 13 13 13 13 13 13 13
12 11 12 13 14 14 14 14 14 13 12 13 13 13 13 13 13 13 12 12 12 12 12 12 12 12 12 13 13 13 13 13 13 13 13 13 13 13 13 13 13 13 13 13 13 13 13 13 13
11 12 13 13 14 14 13 13 13 13 13 14 14 13 13 13 12 12 12 12 12 12 12 12 12 12 12 12 12 12 12 12 12 12 12 12 12 13 13 13 13 13 13 13 13 13 12 12 12
11 12 13 13 13 13 13 12 12 12 13 13 13 13 13 12 12 12 12 12 11 11 11 11 11 11 12 12 12 12 12 12 12 12 12 12 12 12 12 12 12 12 12 12 12 12 12 12 12
11 11 12 12 13 12 12 11 11 12 13 13 13 12 12 12 12 12 11 11 11 11 11 11 11 11 11 11 11 11 12 12 12 12 12 12 12 12 12 12 12 12 12 12 12 12 12 12 12
12 11 11 11 12 12 12 10 10 12 12 12 12 12 12 12 11 11 11 11 11 11 11 11 11 10 11 11 11 11 11 11 11 11 11 11 11 11 12 12 12 12 12 12 12 12 11 11 11
11 10 9 10 11 11 11 10 10 11 11 11 11 11 11 11 11 11 11 11 11 11 11 10 10 10 10 10 11 11 11 11 11 11 11 11 11 11 11 11 11 11 11 11 11 11 11 11 11
9 9 9 10 10 10 10 9 9 11 11 10 11 11 11 10 10 10 10 10 10 10 10 10 10 10 10 10 10 10 10 10 10 10 11 11 11 11 11 11 11 11 11 11 11 11 11 11 10
9 8 9 9 10 10 9 8 9 10 10 9 10 10 10 10 10 10 10 10 10 10 10 10 10 10 10 10 10 10 10 10 10 10 10 10 10 10 10 10 11 10 11 10 10 10 10 10 10
9 9 9 9 10 9 8 9 9 9 9 8 9 9 10 10 10 10 9 9 9 9 9 9 9 9 9 9 9 9 9 10 10 10 10 10 10 10 10 10 10 10 10 10 10 10 10 10 10
9 8 8 8 9 9 8 8 8 8 8 9 9 9 9 9 9 9 9 9 9 9 9 9 9 9 9 9 9 9 9 9 9 9 9 9 9 9 10 10 10 10 10 10 10 9 9 9 9
8 8 8 8 8 8 8 7 8 8 8 9 9 9 9 9 9 9 9 9 8 8 8 8 8 8 8 8 8 8 8 8 8 9 9 9 9 9 9 9 9 9 9 9 9 9 9 9 8
8 8 8 8 7 6 7 6 7 7 7 7 8 8 9 9 9 8 8 8 8 8 8 8 8 8 8 8 8 8 8 8 8 8 9 9 9 9 9 9 9 9 9 9 9 9 9 8 8
7 8 8 7 6 6 6 6 6 7 7 7 7 8 8 8 8 8 8 8 8 8 7 7 7 7 7 7 7 7 7 7 8 8 8 8 8 8 8 8 8 8 8 8 8 8 8 8 8
8 7 6 5 5 5 6 6 6 6 7 7 7 7 8 8 8 8 8 7 7 7 7 7 7 7 7 7 7 7 7 7 7 7 7 8 8 8 8 8 8 8 8 8 8 8 7 7 7
7 5 5 5 4 5 6 6 6 6 6 6 6 7 7 7 7 7 7 7 7 7 6 6 6 6 6 6 6 6 6 6 7 7 7 7 7 7 7 7 7 7 7 7 7 7 7 7 7
6 6 5 5 5 5 5 5 6 6 6 7 7 7 7 7 7 7 6 6 6 6 6 6 6 6 6 5 6 6 6 6 6 6 6 6 6 7 7 7 6 6 6 7 7 7 6 6 6
5 5 5 4 4 4 4 5 5 6 5 5 6 6 6 6 6 6 6 6 6 6 6 6 5 5 5 5 5 5 5 5 5 6 6 6 6 6 6 6 6 6 6 6 6 6 6 6 6
5 5 4 4 4 5 5 5 5 6 5 4 4 5 5 5 5 5 6 6 5 5 5 5 5 5 5 5 5 5 5 5 5 5 5 5 5 5 5 5 5 5 5 5 5 5 5 5 5
4 4 4 3 3 4 5 5 5 5 5 4 4 5 5 5 5 5 5 5 5 5 5 5 4 4 4 4 4 4 4 4 4 4 5 5 5 5 5 5 5 5 5 5 4 4 4 5 4
4 4 3 3 3 2 3 4 5 4 4 4 4 5 5 5 5 5 5 5 5 4 4 4 4 4 4 4 4 4 4 4 4 4 4 4 4 4 4 4 4 4 4 4 4 4 4 4 4
Wind_Speed
10 7 2 4 5 4 2 4 3 1 1 1 2 7 8 5 3 4 2 4 6 7 7 8 9 10 10 9 10 10 10 10 10 10 10 11 11 11 10 10 11 11 11 12 13 13 13 13 13
5 3 5 5 4 2 5 4 3 3 2 2 4 5 6 4 3 5 3 4 7 8 8 8 9 10 10 10 10 9 9 9 9 9 9 9 10 10 10 10 10 11 11 12 12 12 12 12 12
3 2 4 4 4 6 5 4 4 2 1 2 3 5 5 3 3 3 4 7 8 7 7 8 10 10 10 9 9 9 9 9 9 8 8 9 9 9 9 9 10 10 11 11 11 11 11 11 11
3 4 4 3 4 5 5 4 3 2 1 3 4 5 3 3 2 4 7 8 9 6 8 9 10 10 9 9 9 9 8 9 8 8 8 8 8 8 9 9 10 10 10 10 10 10 10 10 10
4 4 3 1 5 4 4 4 3 2 2 1 4 5 2 4 4 7 8 8 8 6 7 9 10 9 9 9 8 8 8 8 8 7 7 7 7 8 8 9 10 9 10 10 9 9 9 9 9
4 4 4 4 5 4 4 3 2 2 1 1 4 5 2 1 5 6 7 7 7 6 7 8 9 9 8 8 8 7 8 7 7 7 7 6 6 7 8 9 9 9 9 9 9 8 9 9 9
4 4 5 5 4 4 4 1 2 3 2 1 4 5 2 1 3 5 7 7 6 6 6 6 8 8 8 7 7 7 7 7 7 6 6 6 6 7 7 8 9 9 8 8 8 8 8 8 9
5 4 3 3 4 4 2 1 1 3 2 1 3 6 5 5 4 6 7 6 6 6 5 5 6 6 6 6 6 6 6 6 6 6 6 6 6 6 7 7 8 8 8 8 8 8 8 8 9
4 3 4 5 5 4 1 1 1 1 4 3 2 3 4 7 7 8 6 5 4 4 3 3 3 5 5 5 5 5 5 5 5 5 6 5 4 5 5 6 7 7 8 8 8 8 7 7 8
4 5 7 3 3 3 1 1 1 2 3 2 2 3 5 7 8 8 7 5 4 3 2 2 2 3 4 4 4 4 4 4 4 4 5 5 4 4 5 6 7 7 7 7 7 7 6 6 6
4 6 4 2 1 2 1 0 0 4 2 5 6 7 7 6 7 6 6 5 5 4 3 3 2 2 3 3 3 3 4 4 4 3 4 5 4 4 4 5 5 5 6 5 5 5 4 5 5
3 3 3 2 0 1 2 1 0 2 5 5 8 10 8 8 7 7 6 4 4 3 2 2 2 2 2 3 3 3 3 3 3 2 3 4 3 3 4 3 4 4 4 4 4 4 4 4 5
3 2 2 1 1 1 2 1 2 3 4 3 5 7 8 7 6 5 5 4 4 3 2 2 2 2 2 2 2 2 2 2 2 2 2 4 3 2 3 3 3 3 4 4 3 3 3 3 4
3 2 2 2 2 1 2 2 2 6 4 4 6 7 7 7 6 5 4 4 3 3 3 2 2 2 2 2 2 2 2 2 2 2 2 3 3 3 3 3 3 3 4 4 4 4 3 3 3
0 0 3 3 3 3 2 4 6 6 4 5 5 6 5 5 5 6 5 5 4 4 3 2 2 2 2 2 2 2 2 2 2 1 2 3 3 4 3 2 2 3 5 5 4 4 4 3 3
1 1 2 4 3 3 5 8 7 4 5 6 6 6 5 4 5 4 5 4 4 4 3 3 2 2 1 1 2 2 2 2 1 2 2 2 3 4 4 2 2 4 5 4 3 3 3 2 2
0 3 4 4 3 3 5 8 6 3 5 6 7 6 6 4 4 4 4 4 4 4 3 3 2 2 2 1 1 2 2 2 1 2 2 2 2 4 4 2 2 4 4 3 4 3 4 3 2
5 5 4 5 3 3 5 9 8 4 5 7 7 6 6 6 6 5 4 4 4 3 3 3 2 1 1 1 1 1 1 1 1 1 1 2 2 4 4 3 2 3 4 3 3 4 3 3 3
3 4 5 5 3 3 7 11 10 7 6 7 7 7 8 7 5 4 4 4 4 3 3 2 2 1 1 1 1 1 1 1 0 0 1 2 2 3 4 3 3 2 3 4 4 4 4 2 2
3 4 4 4 2 3 5 9 9 7 8 8 9 9 9 6 4 5 4 4 4 3 3 3 2 2 1 1 1 2 2 1 1 0 1 1 2 3 3 3 3 3 3 4 4 4 3 2 2
4 5 5 4 4 2 2 6 5 5 5 6 7 7 7 8 8 7 5 4 4 4 3 3 3 2 2 1 1 1 1 1 0 0 1 1 1 3 3 3 3 3 3 4 5 5 5 4 2
5 4 4 2 0 3 1 5 6 5 6 6 6 6 7 7 7 7 6 5 5 4 3 3 3 2 2 1 2 2 2 2 2 2 2 1 1 2 2 3 3 3 3 4 4 4 3 5 4
4 2 2 2 2 3 2 4 8 3 7 8 8 7 6 6 7 7 7 6 5 4 3 3 3 2 2 1 2 3 2 1 1 1 1 0 0 1 2 2 3 3 3 3 4 4 4 4 4
2 3 4 3 2 4 6 5 7 5 8 6 5 6 5 5 5 5 4 5 4 3 3 3 3 2 2 2 2 3 3 2 1 1 1 1 1 0 1 2 2 2 2 2 3 4 4 4 4
3 4 2 3 1 6 3 5 9 7 6 6 6 5 5 5 6 6 5 5 4 4 4 3 3 2 2 2 2 2 3 3 2 2 2 2 1 0 0 1 1 1 1 2 2 3 4 4 5
3 6 6 5 5 5 2 7 7 5 3 2 2 3 4 4 5 5 5 5 5 5 4 4 3 2 2 2 2 2 2 2 1 2 2 2 2 1 1 2 1 1 1 2 2 2 2 2 3
4 4 4 3 1 3 6 6 7 2 2 2 2 3 2 3 4 5 5 4 4 4 4 4 4 3 2 2 1 1 2 2 2 2 2 1 1 1 2 2 2 1 1 1 1 1 2 2 3
3 4 4 4 3 4 5 5 5 5 4 2 1 2 2 2 3 4 4 4 4 3 3 3 3 3 2 2 2 2 1 2 2 2 2 1 1 1 2 2 2 2 2 2 1 1 1 2 1
3 3 3 3 3 4 4 6 5 6 6 5 5 4 4 3 3 4 3 3 3 3 2 2 2 2 2 2 2 2 1 1 2 2 1 1 1 1 1 2 2 1 1 1 1 1 1 2 1
4 5 6 4 5 4 4 7 4 4 4 5 5 4 3 3 3 3 4 4 3 3 3 3 2 2 2 2 2 2 1 2 2 1 1 1 2 1 1 2 2 1 1 1 2 1 1 1 1
Wind_Direction
335 342 61 58 59 59 235 253 239 301 4 337 74 98 105 99 121 150 146 138 131 135 140 138 135 131 127 121 116 111 109 106 102 102 103 104 104 104 100 98 96 96 98 98 97 96 96 94 92
340 8 59 63 99 160 255 249 235 238 203 147 71 81 83 78 79 109 120 137 129 126 129 133 133 131 128 123 118 114 112 109 106 105 108 108 106 107 105 103 101 99 98 100 99 99 98 97 94
336 59 85 86 141 189 216 226 210 242 278 102 65 55 90 106 115 142 155 139 120 116 121 131 133 131 129 125 122 119 118 116 112 108 108 108 107 110 111 109 107 105 103 101 101 100 100 100 98
59 57 63 96 211 225 211 215 203 158 21 61 102 70 57 30 158 153 137 129 122 116 117 126 130 130 127 127 125 123 122 121 118 114 111 112 111 114 116 114 111 110 109 106 104 104 104 102 99
66 84 88 203 238 248 242 233 193 165 154 77 106 103 67 349 84 117 124 124 125 122 119 123 126 128 126 127 129 129 126 124 120 118 117 116 118 117 122 117 116 115 114 112 110 106 106 107 102
68 81 121 213 236 254 261 240 180 144 123 94 106 110 114 31 99 118 119 113 114 120 117 121 121 121 123 124 126 127 130 127 125 124 123 120 121 122 124 124 123 123 121 118 115 111 106 109 107
119 121 177 202 217 245 245 202 159 158 118 132 132 120 137 168 122 117 111 105 100 100 106 107 111 111 113 119 122 122 126 129 129 129 125 119 117 125 125 130 128 127 127 125 121 116 110 108 111
135 124 186 214 205 235 244 123 135 141 147 58 100 137 174 195 142 109 100 99 100 92 90 95 100 103 103 111 122 123 126 129 126 124 119 113 117 129 131 133 133 132 131 128 125 120 113 106 106
106 107 201 212 201 223 265 92 12 68 93 48 54 150 171 148 127 108 99 87 96 100 95 87 91 102 105 110 115 112 117 120 118 118 119 116 113 126 133 135 140 140 139 135 131 126 120 107 103
109 172 212 216 196 194 230 137 172 87 77 72 52 59 116 130 129 130 134 136 135 141 138 106 91 99 99 105 98 90 96 99 103 111 116 114 116 128 140 140 142 142 141 140 136 131 122 109 100
158 190 208 245 227 157 155 325 93 140 190 193 171 163 150 141 141 147 151 153 157 160 153 133 115 102 100 88 87 80 84 85 85 100 120 117 112 115 121 127 135 138 139 136 137 126 114 110 108
170 231 201 221 222 126 163 166 34 185 214 196 171 162 158 155 163 168 165 162 148 139 143 144 121 108 107 100 85 86 84 81 78 91 123 124 114 115 123 125 131 133 137 128 129 125 122 116 117
210 235 241 219 104 136 133 207 202 234 227 184 149 149 159 163 164 167 159 154 144 142 141 146 142 132 117 98 92 92 87 87 91 93 112 134 133 144 143 142 138 141 141 140 137 136 132 127 124
208 212 259 262 230 232 176 243 206 243 201 157 153 166 171 170 166 158 156 158 160 156 153 155 145 143 125 127 121 105 97 104 103 99 121 138 142 151 154 151 148 154 153 151 150 148 139 137 130
129 16 318 268 216 211 149 283 230 232 168 168 182 187 183 181 171 171 175 169 169 157 152 151 142 122 135 144 146 122 118 117 107 123 135 142 148 150 155 161 166 172 165 154 144 138 126 125 126
59 95 261 268 207 184 154 247 248 224 170 195 204 199 187 189 184 180 175 164 160 149 149 161 138 125 139 156 145 121 123 120 118 142 143 143 150 155 144 157 182 173 158 149 152 154 138 131 126
41 212 226 268 227 176 183 240 254 226 190 213 218 207 196 189 188 183 175 167 160 156 154 156 148 156 160 153 123 113 112 113 111 137 146 163 168 162 148 147 155 160 147 146 162 151 143 141 131
213 215 222 229 249 185 216 245 258 248 214 224 224 216 204 199 206 188 172 160 150 149 146 145 146 161 159 124 98 87 75 62 77 112 152 174 172 166 149 137 141 151 153 154 155 146 141 148 144
196 206 240 248 251 218 236 250 257 247 233 230 228 223 215 210 209 181 165 154 144 138 133 144 148 162 154 149 152 168 209 247 260 150 148 161 167 157 146 140 144 147 166 163 160 153 143 131 125
224 234 258 278 282 240 258 264 261 243 229 226 221 221 219 211 200 188 176 163 165 167 164 163 168 170 181 192 197 196 206 222 229 213 87 157 163 157 145 144 158 157 167 156 155 146 149 140 124
234 221 234 257 326 332 306 290 260 253 234 230 221 217 212 204 199 193 186 183 169 171 180 181 184 178 186 175 125 110 71 37 72 268 241 202 154 139 134 138 143 154 169 173 168 162 154 162 150
240 235 215 212 9 280 194 276 268 249 250 235 227 221 217 207 195 189 183 182 184 185 178 171 165 161 178 167 152 167 177 214 230 225 222 202 150 126 132 134 139 155 162 169 173 167 161 159 164
216 219 188 203 199 285 240 227 278 261 245 241 229 224 219 205 189 186 184 182 177 166 160 163 151 151 155 159 170 175 183 207 232 222 172 191 138 124 125 141 144 155 160 167 171 166 160 163 168
162 55 35 42 86 263 230 203 271 235 228 235 227 223 215 196 179 173 164 151 147 144 144 148 146 152 149 148 158 167 169 171 160 167 170 187 213 182 120 129 143 151 146 160 177 175 171 174 167
95 102 31 338 304 249 225 214 251 250 240 225 224 219 205 181 169 161 154 152 148 146 149 151 150 153 157 153 163 175 172 173 176 183 179 173 178 204 189 133 142 158 147 141 145 168 182 183 176
190 157 174 208 228 272 272 234 255 275 280 245 193 177 167 163 165 165 164 160 158 158 153 152 155 162 167 164 173 170 162 172 169 171 171 177 187 195 157 138 138 142 136 134 139 158 180 180 188
164 197 184 156 212 264 264 277 297 306 353 27 76 106 154 171 164 165 164 162 164 165 168 169 164 159 163 171 168 157 149 137 141 143 138 140 157 135 128 120 115 102 93 106 147 162 180 183 197
168 156 117 149 189 251 275 265 254 251 245 251 206 183 192 184 165 165 168 170 171 169 164 157 154 154 148 145 147 137 127 121 123 122 125 127 125 113 121 114 105 90 86 93 112 140 146 163 194
176 167 161 169 185 192 253 264 242 231 215 207 214 207 196 195 182 177 180 179 169 156 149 150 150 139 135 138 127 116 125 114 101 104 120 139 129 121 146 134 120 110 101 107 128 130 142 148 131
203 195 167 183 228 206 227 267 281 243 218 202 214 218 204 196 193 189 180 169 167 169 168 170 165 157 155 139 123 132 127 112 103 100 100 109 116 117 121 111 115 123 120 119 134 131 117 154 167
Height
1505 1506 1507 1509 1512 1523 1523 1515 1508 1506 1504 1504 1502 1502 1505 1509 1512 1518 1516 1515 1517 1518 1520 1521 1522 1523 1524 1525 1526 1526 1527 1528 1529 1529 1530 1531 1531 1531 1532 1532 1532 1533 1533 1533 1533 1534 1534 1534 1534
1504 1506 1508 1508 1518 1528 1523 1512 1508 1504 1503 1503 1503 1504 1505 1509 1511 1512 1513 1515 1517 1518 1519 1521 1522 1523 1524 1525 1525 1526 1527 1528 1528 1529 1530 1531 1531 1531 1532 1532 1533 1533 1533 1533 1534 1534 1534 1534 1535
1504 1505 1508 1511 1520 1523 1515 1507 1505 1503 1502 1503 1504 1505 1507 1510 1511 1512 1513 1515 1516 1518 1519 1521 1522 1523 1524 1524 1525 1526 1527 1527 1528 1529 1530 1530 1531 1531 1532 1532 1533 1533 1533 1534 1534 1535 1535 1535 1535
1504 1506 1508 1515 1517 1512 1507 1503 1502 1502 1502 1503 1504 1507 1509 1512 1512 1513 1513 1515 1516 1518 1519 1520 1521 1522 1523 1524 1525 1525 1526 1527 1527 1528 1529 1530 1530 1531 1532 1532 1533 1533 1533 1534 1534 1535 1535 1536 1536
1503 1505 1512 1518 1513 1507 1503 1501 1501 1502 1502 1503 1504 1507 1510 1512 1512 1513 1514 1515 1516 1517 1518 1520 1521 1522 1522 1523 1524 1525 1525 1526 1526 1527 1528 1529 1530 1530 1531 1532 1532 1533 1533 1534 1534 1535 1535 1536 1536
1503 1505 1517 1519 1511 1505 1502 1501 1501 1502 1503 1504 1504 1507 1510 1512 1512 1513 1514 1515 1516 1517 1518 1519 1520 1521 1522 1522 1523 1524 1524 1525 1525 1526 1527 1528 1529 1530 1530 1531 1532 1532 1533 1534 1534 1535 1535 1535 1536
1503 1508 1513 1512 1509 1506 1501 1500 1501 1502 1502 1504 1504 1507 1510 1511 1512 1513 1514 1515 1516 1517 1517 1518 1519 1520 1520 1521 1522 1523 1523 1524 1525 1525 1526 1527 1528 1529 1529 1530 1531 1532 1532 1533 1534 1534 1535 1535 1536
1500 1506 1509 1509 1507 1504 1500 1500 1500 1501 1502 1504 1504 1506 1508 1510 1511 1513 1514 1515 1516 1516 1517 1517 1518 1518 1519 1520 1521 1522 1522 1523 1523 1524 1525 1526 1527 1528 1529 1529 1530 1531 1532 1532 1533 1534 1535 1535 1536
1500 1508 1510 1506 1504 1502 1499 1500 1501 1501 1502 1503 1504 1505 1506 1508 1510 1512 1513 1513 1514 1515 1516 1516 1516 1517 1517 1518 1519 1520 1521 1521 1522 1523 1524 1525 1526 1527 1527 1528 1529 1530 1531 1532 1532 1533 1534 1535 1536
1499 1507 1503 1500 1499 1499 1499 1499 1500 1501 1502 1503 1504 1504 1505 1507 1508 1510 1511 1511 1512 1513 1514 1515 1515 1515 1515 1516 1517 1518 1519 1520 1520 1521 1522 1523 1524 1525 1526 1527 1528 1529 1530 1531 1531 1532 1533 1534 1535
1497 1500 1498 1497 1497 1497 1498 1499 1500 1500 1502 1501 1502 1503 1504 1506 1507 1508 1509 1510 1510 1511 1512 1513 1513 1513 1514 1514 1515 1516 1517 1518 1519 1519 1520 1521 1522 1523 1524 1525 1526 1527 1528 1529 1530 1531 1532 1533 1534
1497 1496 1496 1496 1496 1497 1497 1498 1499 1499 1499 1499 1500 1502 1503 1504 1505 1506 1507 1508 1509 1510 1510 1511 1512 1512 1512 1513 1513 1514 1515 1516 1517 1517 1518 1519 1520 1521 1522 1523 1524 1525 1526 1527 1529 1530 1531 1532 1533
1496 1495 1495 1495 1495 1496 1497 1497 1498 1498 1498 1499 1499 1500 1501 1502 1504 1505 1506 1507 1508 1508 1509 1509 1510 1510 1510 1510 1511 1512 1513 1514 1514 1515 1516 1517 1518 1519 1520 1521 1522 1523 1524 1526 1527 1528 1529 1530 1531
1494 1494 1495 1494 1494 1495 1496 1496 1497 1495 1496 1497 1498 1498 1499 1500 1501 1503 1504 1505 1505 1506 1507 1507 1508 1508 1508 1508 1509 1509 1510 1511 1512 1513 1514 1514 1515 1516 1517 1518 1520 1521 1522 1524 1525 1526 1527 1528 1530
1494 1496 1495 1493 1493 1494 1495 1497 1495 1493 1494 1495 1496 1497 1497 1499 1500 1500 1501 1502 1503 1503 1504 1505 1505 1506 1506 1506 1507 1507 1508 1509 1509 1510 1511 1512 1513 1514 1515 1516 1517 1519 1520 1521 1523 1524 1526 1527 1528
1495 1498 1500 1494 1492 1493 1498 1498 1492 1492 1492 1493 1494 1494 1495 1496 1497 1498 1499 1499 1500 1501 1501 1502 1503 1503 1503 1504 1504 1504 1505 1506 1507 1507 1508 1509 1510 1511 1512 1513 1515 1516 1518 1519 1520 1522 1523 1524 1526
1499 1502 1500 1496 1491 1492 1495 1495 1490 1490 1490 1490 1491 1491 1492 1493 1495 1495 1496 1497 1497 1498 1499 1499 1500 1500 1501 1501 1501 1502 1503 1503 1504 1504 1505 1506 1508 1509 1509 1511 1512 1513 1515 1516 1518 1519 1520 1522 1523
1500 1500 1498 1496 1491 1492 1494 1492 1488 1488 1488 1487 1488 1488 1489 1490 1491 1492 1493 1494 1495 1495 1496 1496 1497 1498 1498 1498 1499 1499 1500 1500 1501 1502 1502 1503 1505 1506 1507 1508 1509 1510 1511 1513 1515 1516 1518 1519 1521
1494 1496 1496 1494 1490 1492 1491 1489 1486 1485 1485 1485 1485 1485 1486 1486 1488 1490 1491 1491 1492 1492 1493 1493 1494 1494 1495 1495 1495 1496 1496 1497 1498 1498 1499 1500 1502 1502 1504 1505 1506 1507 1508 1509 1511 1513 1515 1516 1518
1494 1496 1496 1493 1490 1491 1490 1487 1483 1482 1481 1480 1480 1481 1482 1483 1484 1486 1487 1487 1488 1489 1490 1490 1491 1491 1492 1493 1493 1494 1494 1494 1495 1496 1497 1498 1499 1500 1501 1502 1503 1504 1505 1506 1508 1510 1511 1513 1515
1493 1496 1495 1494 1492 1490 1491 1488 1482 1479 1478 1477 1477 1477 1478 1479 1480 1481 1483 1483 1484 1485 1486 1487 1487 1488 1489 1490 1491 1491 1492 1491 1492 1493 1494 1495 1496 1496 1497 1499 1500 1501 1502 1503 1504 1506 1508 1510 1512
1494 1491 1491 1492 1497 1499 1495 1497 1483 1479 1476 1475 1474 1475 1475 1476 1477 1478 1479 1480 1481 1482 1483 1484 1484 1485 1486 1487 1488 1488 1488 1488 1489 1490 1491 1492 1493 1494 1495 1496 1497 1498 1499 1500 1502 1503 1505 1507 1508
1490 1489 1490 1492 1496 1500 1497 1499 1487 1479 1476 1473 1471 1471 1472 1472 1473 1474 1475 1476 1478 1479 1480 1481 1482 1482 1483 1484 1485 1486 1486 1486 1487 1488 1488 1489 1490 1491 1492 1493 1494 1495 1496 1498 1499 1500 1502 1504 1506
1488 1491 1493 1497 1501 1502 1494 1497 1487 1479 1472 1469 1468 1468 1469 1470 1471 1472 1473 1474 1475 1477 1478 1479 1479 1480 1481 1482 1482 1483 1483 1484 1484 1485 1485 1486 1487 1488 1489 1490 1491 1492 1493 1495 1496 1498 1499 1501 1502
1490 1498 1505 1505 1507 1500 1491 1492 1483 1470 1467 1466 1466 1466 1467 1468 1468 1469 1471 1472 1473 1474 1475 1476 1477 1478 1478 1479 1480 1480 1481 1482 1482 1482 1483 1484 1485 1485 1486 1487 1489 1490 1491 1492 1493 1495 1496 1498 1499
1490 1494 1502 1504 1505 1500 1492 1489 1476 1468 1465 1464 1464 1465 1466 1466 1467 1468 1469 1470 1471 1472 1473 1474 1475 1475 1476 1477 1478 1478 1479 1479 1480 1481 1481 1482 1482 1483 1484 1485 1486 1487 1488 1489 1490 1491 1492 1494 1495
1490 1493 1493 1500 1503 1502 1494 1485 1473 1466 1465 1464 1464 1464 1465 1466 1467 1468 1469 1469 1470 1471 1472 1472 1473 1473 1474 1475 1476 1476 1477 1477 1478 1479 1479 1480 1481 1482 1482 1483 1484 1485 1485 1486 1487 1488 1489 1490 1491
1488 1490 1497 1500 1501 1495 1489 1485 1477 1468 1467 1465 1465 1464 1465 1466 1466 1467 1468 1468 1469 1470 1470 1471 1471 1471 1472 1473 1473 1474 1474 1475 1476 1477 1477 1478 1479 1479 1480 1481 1481 1482 1482 1483 1484 1485 1486 1487 1487
1489 1491 1492 1497 1498 1497 1493 1481 1466 1464 1463 1463 1463 1463 1464 1465 1465 1466 1467 1468 1468 1469 1469 1469 1469 1470 1470 1471 1471 1472 1472 1473 1474 1474 1475 1476 1477 1477 1478 1478 1479 1479 1480 1481 1481 1482 1482 1483 1484
1485 1486 1490 1494 1496 1497 1496 1481 1463 1462 1460 1460 1461 1462 1463 1464 1465 1465 1466 1466 1467 1467 1467 1467 1468 1468 1468 1469 1469 1470 1471 1471 1471 1472 1473 1474 1474 1475 1475 1476 1476 1477 1477 1478 1478 1479 1479 1480 1480